EXS9BY EGCC-LYTV

Flight info

Callsign EXS9BY
Flight time N/A
Altitude 35000
Route SANBA N859 HON L15 FINMA DCT CHT DCT ITVIP DCT KONAN DCT KOK DCT SISGA DCT RITAX DCT KRH DCT UTABA DCT BEMKI DCT ELMEM DCT DIRAB DCT VESAL DCT BABAG DCT PEVAL DCT NERRA/N0397F190 L607 BALHA L187 TAZ
Aircraft B738/M-SDE2E3FGHIRWXY/LB1

Departure

Time N/A
Airport Manchester Airport (EGCC)

Arrival

Time 2026-05-07 12:58
Airport Tivat Airport (LYTV)
Time Latitude Longitude Altitude Speed Heading
2026-05-07 11:09 50.08320 5.79071 39037 ft 471 kts 117°
2026-05-07 11:09 50.06813 5.83586 39039 ft 470 kts 120°
2026-05-07 11:10 50.03563 5.92400 39034 ft 469 kts 122°
2026-05-07 11:10 50.00286 6.01007 39033 ft 469 kts 122°
2026-05-07 11:11 49.97007 6.09673 39036 ft 469 kts 122°
2026-05-07 11:11 49.93720 6.18411 39045 ft 469 kts 121°
2026-05-07 11:12 49.90429 6.27159 39025 ft 469 kts 121°
2026-05-07 11:12 49.87136 6.35883 39018 ft 468 kts 122°
2026-05-07 11:13 49.83840 6.44584 39024 ft 467 kts 122°
2026-05-07 11:13 49.80568 6.53191 39023 ft 467 kts 122°
2026-05-07 11:14 49.77269 6.61841 39004 ft 467 kts 122°
2026-05-07 11:14 49.73964 6.70477 39005 ft 466 kts 122°
2026-05-07 11:15 49.70659 6.79085 39002 ft 466 kts 122°
2026-05-07 11:15 49.67366 6.87632 39016 ft 466 kts 122°
2026-05-07 11:16 49.64045 6.96224 39020 ft 466 kts 122°
2026-05-07 11:16 49.60759 7.04699 39025 ft 467 kts 122°
2026-05-07 11:17 49.57421 7.13281 39018 ft 467 kts 122°
2026-05-07 11:17 49.54071 7.21863 39017 ft 467 kts 122°
2026-05-07 11:18 49.50856 7.30074 39016 ft 468 kts 123°
2026-05-07 11:18 49.47491 7.38640 39019 ft 468 kts 123°
2026-05-07 11:19 49.44116 7.47208 39025 ft 469 kts 123°
2026-05-07 11:19 49.40750 7.55721 39025 ft 469 kts 123°
2026-05-07 11:20 49.37356 7.64278 39020 ft 469 kts 123°
2026-05-07 11:20 49.33955 7.72827 39033 ft 470 kts 123°
2026-05-07 11:21 49.30732 7.80900 39016 ft 470 kts 123°
2026-05-07 11:21 49.27904 7.87966 39031 ft 470 kts 123°
2026-05-07 11:22 49.23927 7.97869 39012 ft 470 kts 123°
2026-05-07 11:22 49.20543 8.06269 39024 ft 470 kts 124°
2026-05-07 11:23 49.17689 8.13329 39021 ft 469 kts 124°
2026-05-07 11:23 49.14257 8.21799 39026 ft 469 kts 124°
2026-05-07 11:24 49.10257 8.31634 39025 ft 469 kts 124°
2026-05-07 11:24 49.07369 8.38713 39025 ft 469 kts 124°
2026-05-07 11:25 49.03942 8.47094 39023 ft 469 kts 124°
2026-05-07 11:25 49.00468 8.55493 39021 ft 468 kts 127°
2026-05-07 11:26 48.96044 8.62601 39021 ft 461 kts 144°
2026-05-07 11:26 48.90985 8.68598 39024 ft 462 kts 144°
2026-05-07 11:27 48.85945 8.74553 39023 ft 463 kts 144°
2026-05-07 11:27 48.80881 8.80605 39012 ft 463 kts 144°
2026-05-07 11:28 48.75824 8.86670 39018 ft 464 kts 144°
2026-05-07 11:28 48.70763 8.92732 39015 ft 464 kts 144°
2026-05-07 11:29 48.65689 8.98789 39019 ft 465 kts 144°
2026-05-07 11:29 48.60687 9.04742 39018 ft 465 kts 144°
2026-05-07 11:30 48.55602 9.10778 39019 ft 466 kts 144°
2026-05-07 11:30 48.50506 9.16812 39017 ft 465 kts 144°
2026-05-07 11:31 48.45408 9.22834 39014 ft 466 kts 144°
2026-05-07 11:31 48.40342 9.28800 39019 ft 465 kts 144°
2026-05-07 11:32 48.32699 9.37776 39016 ft 465 kts 145°
2026-05-07 11:33 48.27601 9.43744 39020 ft 464 kts 145°
2026-05-07 11:33 48.22536 9.49749 39013 ft 464 kts 143°
2026-05-07 11:34 48.17559 9.55901 39018 ft 464 kts 143°
2026-05-07 11:34 48.12582 9.62065 39021 ft 464 kts 143°
2026-05-07 11:35 48.07633 9.68147 39020 ft 464 kts 143°
2026-05-07 11:35 48.02637 9.74250 39024 ft 464 kts 143°
2026-05-07 11:36 47.97639 9.80339 39011 ft 464 kts 144°
2026-05-07 11:36 47.92634 9.86421 39020 ft 464 kts 144°
2026-05-07 11:37 47.87658 9.92452 39031 ft 464 kts 144°
2026-05-07 11:37 47.82644 9.98516 39024 ft 465 kts 144°
2026-05-07 11:38 47.77687 10.04494 39021 ft 465 kts 144°
2026-05-07 11:38 47.72663 10.10539 39030 ft 465 kts 144°
2026-05-07 11:39 47.67635 10.16572 39025 ft 465 kts 144°
2026-05-07 11:39 47.62637 10.22556 39034 ft 465 kts 144°
2026-05-07 11:40 47.57595 10.28577 39032 ft 465 kts 144°
2026-05-07 11:40 47.52398 10.34262 39016 ft 463 kts 150°
2026-05-07 11:41 47.46978 10.39404 38992 ft 463 kts 151°
2026-05-07 11:41 47.41576 10.44544 39007 ft 462 kts 150°
2026-05-07 11:42 47.36235 10.49710 39013 ft 462 kts 150°
2026-05-07 11:42 47.30853 10.54923 38988 ft 463 kts 150°
2026-05-07 11:43 47.25501 10.60206 38998 ft 464 kts 148°
2026-05-07 11:43 47.20246 10.65764 38995 ft 465 kts 148°
2026-05-07 11:44 47.15027 10.71303 38987 ft 466 kts 148°
2026-05-07 11:44 47.09757 10.76829 38974 ft 466 kts 148°
2026-05-07 11:45 47.04474 10.82328 38976 ft 465 kts 149°
2026-05-07 11:45 46.99192 10.87813 39002 ft 466 kts 149°
2026-05-07 11:46 46.93929 10.93265 38982 ft 467 kts 149°
2026-05-07 11:46 46.88625 10.98750 38996 ft 467 kts 149°
2026-05-07 11:47 46.83378 11.04163 39017 ft 466 kts 149°
2026-05-07 11:47 46.78486 11.10438 39010 ft 472 kts 137°
2026-05-07 11:48 46.74070 11.17444 39004 ft 472 kts 137°
2026-05-07 11:48 46.69627 11.24481 38999 ft 471 kts 137°
2026-05-07 11:49 46.65151 11.31452 38972 ft 471 kts 137°
2026-05-07 11:49 46.60670 11.38371 38964 ft 469 kts 138°
2026-05-07 11:50 46.56196 11.45258 38969 ft 468 kts 138°
2026-05-07 11:50 46.51733 11.52116 38951 ft 472 kts 138°
2026-05-07 11:51 46.47224 11.59030 38966 ft 472 kts 138°
2026-05-07 11:51 46.42704 11.65945 38975 ft 473 kts 138°
2026-05-07 11:52 46.38175 11.72842 38982 ft 472 kts 139°
2026-05-07 11:52 46.33583 11.79514 38970 ft 470 kts 140°
2026-05-07 11:53 46.28927 11.86148 38976 ft 470 kts 140°
2026-05-07 11:53 46.24283 11.92774 38982 ft 468 kts 140°
2026-05-07 11:54 46.19657 11.99389 38975 ft 468 kts 140°
2026-05-07 11:54 46.15122 12.05868 38985 ft 465 kts 140°
2026-05-07 11:55 46.10519 12.12427 38991 ft 465 kts 140°
2026-05-07 11:55 46.05911 12.18975 38987 ft 466 kts 141°
2026-05-07 11:56 46.01286 12.25530 38998 ft 467 kts 141°
2026-05-07 11:56 45.96658 12.32074 38990 ft 468 kts 141°
2026-05-07 11:57 45.92042 12.38585 38984 ft 469 kts 141°
2026-05-07 11:57 45.87385 12.45139 38978 ft 469 kts 141°
2026-05-07 11:58 45.82714 12.51695 38991 ft 470 kts 141°
2026-05-07 11:58 45.78030 12.58253 38992 ft 471 kts 141°
2026-05-07 11:59 45.73368 12.64765 38975 ft 472 kts 141°
2026-05-07 11:59 45.68667 12.71315 38991 ft 472 kts 141°
2026-05-07 12:00 45.63963 12.77854 38981 ft 472 kts 141°
2026-05-07 12:00 45.59253 12.84385 38990 ft 472 kts 141°
2026-05-07 12:01 45.54577 12.90852 39003 ft 471 kts 141°
2026-05-07 12:01 45.49864 12.97355 38986 ft 471 kts 141°
2026-05-07 12:02 45.45195 13.03783 39002 ft 471 kts 141°
2026-05-07 12:02 45.40483 13.10255 38994 ft 470 kts 142°
2026-05-07 12:03 45.35953 13.16910 39009 ft 473 kts 136°
2026-05-07 12:03 45.31620 13.23964 39009 ft 473 kts 136°
2026-05-07 12:04 45.27518 13.31323 39009 ft 477 kts 131°
2026-05-07 12:04 45.23617 13.38950 39008 ft 477 kts 131°
2026-05-07 12:05 45.19742 13.46517 39006 ft 477 kts 131°
2026-05-07 12:05 45.15804 13.54088 39000 ft 477 kts 132°
2026-05-07 12:06 45.11847 13.61622 39007 ft 476 kts 132°
2026-05-07 12:06 45.07879 13.69145 39011 ft 477 kts 132°
2026-05-07 12:07 45.03902 13.76668 39024 ft 478 kts 132°
2026-05-07 12:07 44.99942 13.84142 39019 ft 479 kts 132°
2026-05-07 12:08 44.95938 13.91682 39020 ft 480 kts 132°
2026-05-07 12:08 44.91929 13.99214 39016 ft 480 kts 132°
2026-05-07 12:09 44.87956 14.06656 39010 ft 480 kts 132°
2026-05-07 12:09 44.83961 14.14122 39016 ft 480 kts 132°
2026-05-07 12:10 44.79935 14.21625 39003 ft 480 kts 133°
2026-05-07 12:10 44.75907 14.29111 39016 ft 479 kts 133°
2026-05-07 12:11 44.71885 14.36567 39020 ft 478 kts 133°
2026-05-07 12:11 44.67860 14.44009 39027 ft 478 kts 133°
2026-05-07 12:12 44.63863 14.51380 38999 ft 477 kts 133°
2026-05-07 12:12 44.59841 14.58778 39015 ft 477 kts 133°
2026-05-07 12:13 44.55811 14.66172 39026 ft 477 kts 133°
2026-05-07 12:13 44.51776 14.73556 39033 ft 477 kts 133°
2026-05-07 12:14 44.47736 14.80931 39029 ft 477 kts 133°
2026-05-07 12:14 44.43686 14.88304 39031 ft 478 kts 133°
2026-05-07 12:15 44.39656 14.95622 39018 ft 478 kts 133°
2026-05-07 12:15 44.35630 15.02915 39028 ft 479 kts 133°
2026-05-07 12:16 44.31558 15.10274 39015 ft 479 kts 133°
2026-05-07 12:16 44.27471 15.17639 39026 ft 480 kts 133°
2026-05-07 12:17 44.23394 15.24966 39018 ft 482 kts 133°
2026-05-07 12:17 44.19274 15.32354 39025 ft 483 kts 133°
2026-05-07 12:18 44.15145 15.39740 38997 ft 483 kts 133°
2026-05-07 12:18 44.11013 15.47114 39017 ft 483 kts 133°
2026-05-07 12:19 44.06902 15.54430 39017 ft 483 kts 133°
2026-05-07 12:19 44.02768 15.61768 39023 ft 482 kts 133°
2026-05-07 12:20 43.98637 15.69081 39020 ft 481 kts 133°
2026-05-07 12:20 43.94499 15.76389 39024 ft 481 kts 133°
2026-05-07 12:21 43.90362 15.83677 39031 ft 480 kts 133°
2026-05-07 12:21 43.86257 15.90891 39013 ft 479 kts 133°
2026-05-07 12:22 43.82126 15.98133 39036 ft 478 kts 133°
2026-05-07 12:22 43.78030 16.05294 39035 ft 479 kts 133°
2026-05-07 12:23 43.73891 16.12512 39029 ft 479 kts 133°
2026-05-07 12:23 43.69782 16.19662 39036 ft 478 kts 133°
2026-05-07 12:24 43.65646 16.26841 39042 ft 477 kts 133°
2026-05-07 12:24 43.61506 16.34008 39044 ft 478 kts 133°
2026-05-07 12:25 43.57362 16.41166 39039 ft 477 kts 133°
2026-05-07 12:25 43.53243 16.48263 39052 ft 477 kts 133°
2026-05-07 12:26 43.49086 16.55407 39047 ft 478 kts 133°
2026-05-07 12:26 43.44917 16.62553 39062 ft 479 kts 133°
2026-05-07 12:27 43.40739 16.69699 39071 ft 479 kts 133°
2026-05-07 12:27 43.36557 16.76835 39046 ft 479 kts 133°
2026-05-07 12:28 43.32402 16.83907 39071 ft 479 kts 133°
2026-05-07 12:28 43.28219 16.91012 39092 ft 478 kts 133°
2026-05-07 12:29 43.24029 16.98108 39087 ft 479 kts 133°
2026-05-07 12:29 43.19881 17.05116 39073 ft 479 kts 133°
2026-05-07 12:30 43.15682 17.12195 39086 ft 479 kts 133°
2026-05-07 12:30 43.11506 17.19219 39081 ft 479 kts 133°
2026-05-07 12:31 43.07301 17.26273 39094 ft 479 kts 133°
2026-05-07 12:31 43.03083 17.33333 39089 ft 479 kts 133°
2026-05-07 12:32 42.98867 17.40373 39077 ft 479 kts 133°
2026-05-07 12:32 42.94672 17.47364 39095 ft 479 kts 133°
2026-05-07 12:33 42.88509 17.58127 39079 ft 483 kts 127°
2026-05-07 12:33 42.86670 17.61991 38698 ft 489 kts 126°
2026-05-07 12:33 42.84866 17.65912 38144 ft 485 kts 125°
2026-05-07 12:34 42.83083 17.69807 37460 ft 484 kts 125°
2026-05-07 12:34 42.81294 17.73676 36873 ft 482 kts 126°
2026-05-07 12:34 42.79494 17.77524 36253 ft 481 kts 126°
2026-05-07 12:34 42.77710 17.81297 35611 ft 480 kts 126°
2026-05-07 12:35 42.75892 17.85118 34955 ft 482 kts 126°
2026-05-07 12:35 42.74059 17.88954 34232 ft 485 kts 126°
2026-05-07 12:35 42.72219 17.92799 33432 ft 486 kts 126°
2026-05-07 12:35 42.70377 17.96648 32646 ft 486 kts 126°
2026-05-07 12:36 42.68567 18.00428 31880 ft 486 kts 126°
2026-05-07 12:36 42.66722 18.04277 31094 ft 486 kts 126°
2026-05-07 12:36 42.64876 18.08124 30285 ft 486 kts 126°
2026-05-07 12:36 42.63030 18.11967 29321 ft 487 kts 126°
2026-05-07 12:37 42.61202 18.15766 28373 ft 487 kts 126°
2026-05-07 12:37 42.59350 18.19612 27400 ft 486 kts 126°
2026-05-07 12:37 42.57497 18.23456 26398 ft 487 kts 126°
2026-05-07 12:37 42.55642 18.27296 25528 ft 485 kts 126°
2026-05-07 12:38 42.53781 18.31058 24902 ft 477 kts 127°
2026-05-07 12:38 42.51894 18.34721 24217 ft 471 kts 128°
2026-05-07 12:38 42.50010 18.38330 23483 ft 466 kts 128°
2026-05-07 12:38 42.48147 18.41906 22675 ft 462 kts 128°
2026-05-07 12:39 42.46336 18.45405 21874 ft 459 kts 128°
2026-05-07 12:39 42.44516 18.48928 21174 ft 453 kts 128°
2026-05-07 12:39 42.42699 18.52393 20452 ft 449 kts 129°
2026-05-07 12:39 42.40889 18.55814 19749 ft 445 kts 129°
2026-05-07 12:40 42.39098 18.59215 19047 ft 442 kts 129°
2026-05-07 12:40 42.37324 18.62602 18330 ft 440 kts 129°
2026-05-07 12:40 42.35565 18.65966 17541 ft 436 kts 129°
2026-05-07 12:40 42.33824 18.69290 16818 ft 432 kts 129°
2026-05-07 12:41 42.32096 18.72581 16127 ft 427 kts 129°
2026-05-07 12:41 42.30406 18.75800 15418 ft 424 kts 129°
2026-05-07 12:41 42.28706 18.79035 14728 ft 421 kts 129°
2026-05-07 12:41 42.27011 18.82230 14045 ft 418 kts 129°
2026-05-07 12:42 42.25307 18.85390 13304 ft 414 kts 129°
2026-05-07 12:42 42.23617 18.88511 12605 ft 410 kts 129°
2026-05-07 12:42 42.21946 18.91598 11945 ft 405 kts 129°
2026-05-07 12:42 42.20303 18.94637 11645 ft 392 kts 129°
2026-05-07 12:43 42.18731 18.97540 11476 ft 376 kts 130°
2026-05-07 12:43 42.17271 19.00233 11329 ft 362 kts 130°
2026-05-07 12:43 42.15811 19.02919 11188 ft 349 kts 130°
2026-05-07 12:43 42.14397 19.05518 11066 ft 338 kts 130°
2026-05-07 12:44 42.13027 19.08032 10923 ft 329 kts 130°
2026-05-07 12:44 42.11691 19.10483 10776 ft 320 kts 130°
2026-05-07 12:44 42.10372 19.12837 10626 ft 309 kts 136°
2026-05-07 12:44 42.08677 19.14440 10461 ft 291 kts 161°
2026-05-07 12:45 42.06780 19.14898 10397 ft 268 kts 193°
2026-05-07 12:45 42.05063 19.14106 10189 ft 260 kts 207°
2026-05-07 12:45 42.03386 19.13205 9899 ft 260 kts 202°
2026-05-07 12:45 42.01758 19.12285 9587 ft 255 kts 219°
2026-05-07 12:46 42.00662 19.10489 9357 ft 248 kts 243°
2026-05-07 12:46 42.00166 19.08289 9085 ft 248 kts 264°
2026-05-07 12:46 42.00387 19.05999 8813 ft 252 kts 289°
2026-05-07 12:46 42.01354 19.04021 8522 ft 260 kts 314°
2026-05-07 12:47 42.02900 19.02704 8168 ft 265 kts 327°
2026-05-07 12:47 42.04233 19.01056 7535 ft 265 kts 297°
2026-05-07 12:47 42.05029 18.98873 6976 ft 262 kts 292°
2026-05-07 12:47 42.05768 18.96687 6603 ft 250 kts 292°
2026-05-07 12:48 42.06478 18.94618 6329 ft 239 kts 295°
2026-05-07 12:48 42.07361 18.92761 6088 ft 232 kts 306°
2026-05-07 12:48 42.08482 18.91236 5861 ft 227 kts 318°
2026-05-07 12:48 42.09766 18.90039 5617 ft 222 kts 327°
2026-05-07 12:49 42.11119 18.89083 5384 ft 218 kts 331°
2026-05-07 12:49 42.12488 18.88262 5160 ft 213 kts 334°
2026-05-07 12:49 42.13841 18.87513 4940 ft 208 kts 335°
2026-05-07 12:49 42.15176 18.86802 4716 ft 204 kts 335°
2026-05-07 12:50 42.16479 18.86111 4507 ft 204 kts 336°
2026-05-07 12:50 42.17797 18.85420 4313 ft 202 kts 336°
2026-05-07 12:50 42.19110 18.84737 4093 ft 203 kts 336°
2026-05-07 12:50 42.20432 18.84051 3865 ft 204 kts 337°
2026-05-07 12:51 42.21758 18.83366 3635 ft 204 kts 338°
2026-05-07 12:51 42.23082 18.82682 3420 ft 203 kts 338°
2026-05-07 12:51 42.24388 18.81988 3203 ft 199 kts 334°
2026-05-07 12:51 42.25522 18.81017 3086 ft 189 kts 318°
2026-05-07 12:52 42.26460 18.79782 2897 ft 189 kts 309°
2026-05-07 12:52 42.27296 18.78442 2702 ft 190 kts 309°
2026-05-07 12:52 42.28112 18.77066 2668 ft 184 kts 308°
2026-05-07 12:52 42.28896 18.75747 2688 ft 178 kts 309°
2026-05-07 12:53 42.29616 18.74576 2726 ft 177 kts 308°
2026-05-07 12:53 42.30401 18.73280 2678 ft 178 kts 308°
2026-05-07 12:53 42.31177 18.71997 2598 ft 182 kts 308°
2026-05-07 12:53 42.32010 18.70665 2444 ft 188 kts 309°
2026-05-07 12:54 42.32862 18.69372 2463 ft 184 kts 311°
2026-05-07 12:54 42.33778 18.68124 2361 ft 187 kts 324°
2026-05-07 12:54 42.34910 18.67265 2346 ft 185 kts 341°
2026-05-07 12:54 42.36128 18.66715 2214 ft 187 kts 345°
2026-05-07 12:55 42.37352 18.66214 2015 ft 180 kts 346°
2026-05-07 12:55 42.38517 18.65712 1863 ft 172 kts 345°
2026-05-07 12:55 42.39632 18.65190 1700 ft 169 kts 345°
2026-05-07 12:55 42.40726 18.64853 1536 ft 155 kts
2026-05-07 12:56 42.41768 18.65104 1379 ft 145 kts 30°
2026-05-07 12:56 42.42472 18.65871 1338 ft 127 kts 61°
2026-05-07 12:56 42.42820 18.66995 1177 ft 132 kts 80°
2026-05-07 12:56 42.42852 18.68178 910 ft 124 kts 96°
2026-05-07 12:57 42.42634 18.69284 563 ft 122 kts 111°
2026-05-07 12:57 42.42175 18.70264 312 ft 126 kts 129°
2026-05-07 12:57 42.41524 18.71087 105 ft 127 kts 136°
2026-05-07 12:57 42.40884 18.71837 5 ft 113 kts 137°
2026-05-07 12:58 42.40439 18.72359 1 ft 55 kts 139°
2026-05-07 12:58 42.40294 18.72518 5 ft 9 kts 129°
2026-05-07 12:58 42.40314 18.72519 5 ft 5 kts 314°
2026-05-07 12:58 42.40343 18.72477 5 ft 7 kts 313°
2026-05-07 12:59 42.40391 18.72412 3 ft 13 kts 319°
2026-05-07 12:59 42.40480 18.72308 1 ft 20 kts 320°
2026-05-07 12:59 42.40599 18.72171 -1 ft 26 kts 319°
2026-05-07 12:59 42.40747 18.71996 2 ft 30 kts 319°
2026-05-07 13:00 42.40884 18.71834 5 ft 16 kts 319°
2026-05-07 13:00 42.40955 18.71794 5 ft 9 kts 32°
2026-05-07 13:00 42.40999 18.71850 6 ft 9 kts 22°
2026-05-07 13:00 42.41037 18.71859 7 ft 3 kts 42°
2026-05-07 13:01 42.41046 18.71885 8 ft 3 kts 95°
2026-05-07 13:01 42.41032 18.71897 8 ft 0 kts 175°